Change the Weather History Date:

Monday, February 18, 2013

  Actual Average Record
Temperature  
Mean Temperature 42 °F -  
Max Temperature 51 °F 53 °F 84 °F (1970)
Min Temperature 33 °F 28 °F 3 °F (1978)
Degree Days  
Heating Degree Days 23    
Moisture  
Dew Point 18 °F    
Average Humidity 37    
Maximum Humidity 49    
Minimum Humidity 24    
Precipitation  
Precipitation 0.00 in - - ()
Sea Level Pressure  
Sea Level Pressure 29.91 in    
Wind  
Wind Speed 13 mph (North)    
Max Wind Speed 24 mph    
Max Gust Speed 31 mph    
Visibility 10 miles    
Events      
Averages and records for this station are not official NWS values.
T = Trace of Precipitation, MM = Missing Value Source: NWS Daily Summary

Daily Weather History Graph

Daily Weather History Graph

Search for Another Location

Airport or City:

Trip Planner

Search our weather history database for the weather conditions in past years. The results will help you decide how hot, cold, wet, or windy it might be!

Date:

Astronomy

Feb. 18, 2013 Rise Set
Actual Time 7:28 AM CST 6:33 PM CST
Civil Twilight 7:02 AM CST 6:59 PM CST
Nautical Twilight 6:33 AM CST 7:28 PM CST
Astronomical Twilight 6:04 AM CST 7:57 PM CST
Moon 12:28 PM CST (2/18) 2:02 AM CST (2/18)
Length of Visible Light 11h 56m
Length of Day
11h 05m
First Quarter, 58% of the Moon is Illuminated
Feb 18
First Quarter
Feb 25
Full
Mar 4
Last Quarter
Mar 11
New
Mar 19
First Quarter

Hourly Weather History & Observations

Time (CST) Temp. Windchill Dew Point Humidity Pressure Visibility Wind Dir Wind Speed Gust Speed Precip Events Conditions
12:15 AM 42.8 °F 36.6 °F 19.4 °F 39% 29.69 in 10.0 mi SSW 11.5 mph - N/A   Clear
12:35 AM 42.8 °F 36.6 °F 21.2 °F 42% 29.69 in 10.0 mi SSW 11.5 mph - N/A   Clear
12:55 AM 42.8 °F 36.6 °F 21.2 °F 42% 29.69 in 10.0 mi SSW 11.5 mph - N/A   Clear
1:15 AM 42.8 °F 37.0 °F 21.2 °F 42% 29.69 in 10.0 mi SW 10.4 mph - N/A   Clear
1:35 AM 42.8 °F 35.4 °F 19.4 °F 39% 29.68 in 10.0 mi SW 15.0 mph - N/A   Clear
1:55 AM 42.8 °F 34.5 °F 19.4 °F 39% 29.68 in 10.0 mi SW 18.4 mph 24.2 mph N/A   Clear
2:15 AM 44.6 °F 36.9 °F 19.4 °F 37% 29.69 in 10.0 mi SW 18.4 mph 24.2 mph N/A   Clear
2:35 AM 42.8 °F 34.8 °F 19.4 °F 39% 29.69 in 10.0 mi SW 17.3 mph 24.2 mph N/A   Clear
2:55 AM 42.8 °F 35.1 °F 19.4 °F 39% 29.69 in 10.0 mi SW 16.1 mph - N/A   Clear
3:15 AM 42.8 °F 35.1 °F 17.6 °F 36% 29.69 in 10.0 mi SW 16.1 mph - N/A   Clear
3:35 AM 41.0 °F 32.5 °F 17.6 °F 39% 29.69 in 10.0 mi SW 17.3 mph - N/A   Clear
3:55 AM 41.0 °F 32.8 °F 15.8 °F 36% 29.68 in 10.0 mi SW 16.1 mph 21.9 mph N/A   Clear
4:15 AM 39.2 °F 30.8 °F 14.0 °F 36% 29.68 in 10.0 mi WSW 15.0 mph - N/A   Clear
4:35 AM 39.2 °F 31.2 °F 12.2 °F 33% 29.68 in 10.0 mi WSW 13.8 mph - N/A   Clear
4:55 AM 39.2 °F 32.0 °F 14.0 °F 36% 29.68 in 10.0 mi SW 11.5 mph - N/A   Clear
5:15 AM 37.4 °F 28.9 °F 12.2 °F 36% 29.68 in 10.0 mi WSW 13.8 mph - N/A   Clear
5:35 AM 37.4 °F 28.9 °F 12.2 °F 36% 29.69 in 10.0 mi WSW 13.8 mph - N/A   Clear
5:55 AM 37.4 °F 30.8 °F 10.4 °F 33% 29.71 in 10.0 mi West 9.2 mph - N/A   Clear
6:15 AM 42.8 °F 34.5 °F 12.2 °F 29% 29.73 in 10.0 mi WNW 18.4 mph 31.1 mph N/A   Clear
6:35 AM 41.0 °F 33.5 °F 12.2 °F 31% 29.75 in 10.0 mi NW 13.8 mph - N/A   Clear
6:55 AM 41.0 °F 32.8 °F 14.0 °F 33% 29.76 in 10.0 mi NNW 16.1 mph - N/A   Clear
7:15 AM 39.2 °F 31.6 °F 15.8 °F 39% 29.78 in 10.0 mi NNW 12.7 mph - N/A   Clear
7:35 AM 39.2 °F 32.0 °F 19.4 °F 45% 29.79 in 10.0 mi NNW 11.5 mph - N/A   Clear
7:55 AM 39.2 °F 32.5 °F 21.2 °F 49% 29.81 in 10.0 mi NNW 10.4 mph - N/A   Clear
8:15 AM 39.2 °F 30.8 °F 21.2 °F 49% 29.83 in 10.0 mi NNW 15.0 mph - N/A   Clear
8:35 AM 39.2 °F 29.8 °F 21.2 °F 49% 29.84 in 10.0 mi North 18.4 mph 25.3 mph N/A   Clear
8:55 AM 41.0 °F 32.8 °F 23.0 °F 49% 29.87 in 10.0 mi North 16.1 mph 21.9 mph N/A   Clear
9:15 AM 41.0 °F 32.8 °F 23.0 °F 49% 29.89 in 10.0 mi North 16.1 mph 21.9 mph N/A   Clear
9:35 AM 41.0 °F 31.4 °F 23.0 °F 49% 29.90 in 10.0 mi North 21.9 mph 28.8 mph N/A   Clear
9:55 AM 42.8 °F 33.8 °F 23.0 °F 46% 29.91 in 10.0 mi North 21.9 mph 29.9 mph N/A   Clear
10:15 AM 42.8 °F 33.3 °F 23.0 °F 46% 29.92 in 10.0 mi North 24.2 mph 28.8 mph N/A   Clear
10:35 AM 42.8 °F 33.5 °F 23.0 °F 46% 29.94 in 10.0 mi North 23.0 mph 29.9 mph N/A   Clear
10:55 AM 44.6 °F 36.1 °F 23.0 °F 43% 29.95 in 10.0 mi North 21.9 mph 28.8 mph N/A   Clear
11:15 AM 46.4 °F 38.3 °F 24.8 °F 43% 29.95 in 10.0 mi North 23.0 mph 29.9 mph N/A   Clear
11:35 AM 46.4 °F 39.0 °F 23.0 °F 40% 29.97 in 10.0 mi North 19.6 mph 28.8 mph N/A   Clear
11:55 AM 50.0 °F - 24.8 °F 37% 29.97 in 10.0 mi North 21.9 mph 29.9 mph N/A   Clear
12:15 PM 50.0 °F - 23.0 °F 35% 29.98 in 10.0 mi North 20.7 mph 29.9 mph N/A   Clear
12:35 PM 50.0 °F - 23.0 °F 35% 29.97 in 10.0 mi North 20.7 mph 27.6 mph N/A   Clear
12:55 PM 50.0 °F - 21.2 °F 32% 29.97 in 10.0 mi North 20.7 mph 24.2 mph N/A   Clear
1:15 PM 50.0 °F - 19.4 °F 30% 29.97 in 10.0 mi NNW 18.4 mph 23.0 mph N/A   Clear
1:35 PM 50.0 °F - 19.4 °F 30% 29.97 in 10.0 mi North 18.4 mph 26.5 mph N/A   Clear
1:55 PM 50.0 °F - 19.4 °F 30% 29.98 in 10.0 mi North 13.8 mph 25.3 mph N/A   Clear
2:15 PM 51.8 °F - 19.4 °F 28% 29.99 in 10.0 mi North 16.1 mph 26.5 mph N/A   Clear
2:35 PM 50.0 °F - 17.6 °F 28% 29.99 in 10.0 mi North 12.7 mph 20.7 mph N/A   Clear
2:55 PM 50.0 °F - 15.8 °F 26% 29.99 in 10.0 mi North 13.8 mph 20.7 mph N/A   Clear
3:15 PM 51.8 °F - 15.8 °F 24% 29.99 in 10.0 mi NNE 13.8 mph 19.6 mph N/A   Clear
3:35 PM 51.8 °F - 17.6 °F 26% 30.00 in 10.0 mi North 12.7 mph 19.6 mph N/A   Clear
3:55 PM 51.8 °F - 17.6 °F 26% 30.01 in 10.0 mi NNE 10.4 mph - N/A   Clear
4:15 PM 51.8 °F - 17.6 °F 26% 30.01 in 10.0 mi North 12.7 mph - N/A   Clear
4:35 PM 50.0 °F - 17.6 °F 28% 30.02 in 10.0 mi North 4.6 mph - N/A   Clear
4:55 PM 50.0 °F - 17.6 °F 28% 30.02 in 10.0 mi NNW 4.6 mph - N/A   Clear
5:15 PM 50.0 °F - 19.4 °F 30% 30.03 in 10.0 mi North 6.9 mph - N/A   Clear
5:35 PM 50.0 °F - 17.6 °F 28% 30.03 in 10.0 mi North 12.7 mph 17.3 mph N/A   Clear
5:55 PM 50.0 °F - 15.8 °F 26% 30.04 in 10.0 mi North 12.7 mph - N/A   Clear
6:15 PM 50.0 °F - 17.6 °F 28% 30.05 in 10.0 mi NNE 8.1 mph - N/A   Clear
6:35 PM 44.6 °F 40.7 °F 15.8 °F 31% 30.06 in 10.0 mi NNE 6.9 mph - N/A   Clear
6:55 PM 42.8 °F 38.6 °F 14.0 °F 31% 30.06 in 10.0 mi NNE 6.9 mph - N/A   Clear
7:15 PM 41.0 °F 36.4 °F 14.0 °F 33% 30.06 in 10.0 mi NE 6.9 mph - N/A   Clear
7:35 PM 39.2 °F 33.6 °F 14.0 °F 36% 30.07 in 10.0 mi NE 8.1 mph - N/A   Clear
7:55 PM 39.2 °F 35.0 °F 14.0 °F 36% 30.07 in 10.0 mi NE 5.8 mph - N/A   Clear
8:15 PM 39.2 °F 35.0 °F 15.8 °F 39% 30.07 in 10.0 mi ENE 5.8 mph - N/A   Clear
8:35 PM 37.4 °F 32.1 °F 14.0 °F 38% 30.07 in 10.0 mi NE 6.9 mph - N/A   Clear
8:55 PM 35.6 °F 29.9 °F 14.0 °F 41% 30.07 in 10.0 mi ENE 6.9 mph - N/A   Clear
9:15 PM 37.4 °F 34.9 °F 14.0 °F 38% 30.09 in 10.0 mi East 3.5 mph - N/A   Clear
9:35 PM 35.6 °F 32.8 °F 15.8 °F 44% 30.09 in 10.0 mi East 3.5 mph - N/A   Clear
9:55 PM 35.6 °F 32.8 °F 15.8 °F 44% 30.09 in 10.0 mi East 3.5 mph - N/A   Clear
10:15 PM 33.8 °F 30.8 °F 15.8 °F 48% 30.10 in 10.0 mi East 3.5 mph - N/A   Clear
10:35 PM 33.8 °F 29.6 °F 15.8 °F 48% 30.10 in 10.0 mi East 4.6 mph - N/A   Clear
10:55 PM 35.6 °F 31.7 °F 15.8 °F 44% 30.10 in 10.0 mi East 4.6 mph - N/A   Clear
11:15 PM 33.8 °F 30.8 °F 15.8 °F 48% 30.10 in 10.0 mi East 3.5 mph - N/A   Clear
11:35 PM 33.8 °F 27.0 °F 15.8 °F 48% 30.10 in 10.0 mi East 8.1 mph - N/A   Clear
11:55 PM 33.8 °F 29.6 °F 15.8 °F 48% 30.11 in 10.0 mi ESE 4.6 mph - N/A   Clear